Back to catalog

STARLINK-31911

AliveCommunicationsVLEO
NORAD 60587·PAYLOAD·🇺🇸 United States

Launched Aug 20, 2024 from Cape Canaveral Space Force Station

Loading…

Next Passes (next 24 hours)

TLE

FreshSource: CelesTrak SupGP

Epoch: Sep 14, 2026, 14:14 UTC

1 60587C 24150E   26257.59354167  .00062412  00000+0  18442-2 0  2572
2 60587  53.1576 145.5101 0001330 104.0938 158.5214 15.34355279    15

Track STARLINK-31911 in real time with AllMySat

Download on the App Store